CZ-6A DEB, 61838

Orbit data source: Space-Track

CZ-6A DEB, 61838 is space debris in LEO originally from a launch on Tue, 06 Aug 2024 UTC launched from the Taiyaun Space Center, China (TSC). Debris objects in space refer to the collection of defunct objects orbiting the Earth. Examples of debris include non-operational satellites, rocket bodies, and fragments generated from explosions, collisions, or faulty payload assembly.

Loading next visibility...
Identifier
61838, 2024-140ADE
Orbit
LEO
Country
Flag of CNCN / PRC
Related business
Manufacturer
SAST
Mission
Spacecraft
Bus & Motor
Unknown
Mass
Unknown
Launch date (UTC)
2024-08-06 (2 years ago)
Launch vehicle
Unknown
Launch site
Taiyaun Space Center, China (TSC)
Object type
Payload
Rocket body
Debris
Shape & HBR
Unknown shape, 0.1 m
Radar Cross Section
Small (<0.1 m²)

Expand to show TLE details & history
Last TLE update: 1 day ago

TLE from 1 day ago
0 CZ-6A DEB
1 61838U 24140ADE 26170.70391656  .00007328  00000-0  12358-2 0  9991
2 61838  88.9463 265.1288 0071598 234.1526 125.3027 14.67695046 93247
Epoch: 2026-06-19T16:53Z
TLE epoch observation values (Epoch: 2026-06-19T16:53:38.390Z)
Latitude
-0.00004°
Longitude
103.78976°
Altitude
700.958 km
Speed
7.49 km/s
True Right ascension
17h 40m 30s
True Declination
0° 00' 00"
Sunlit
Object was in full shadow at epoch
Visualization orbit readout
Latitude
Unknown
Longitude
Unknown
Altitude
Unknown
Speed
Unknown
Apparent Right ascension
Unknown
Apparent Declination
Unknown
Sunlit
N/A
Visualization observer readout
Local Sidereal Time
07:20:29
Azimuth
Unknown
Elevation
Unknown
Doppler factor
Unknown
Orbital elements
Apogee altitude
715.749 km
Perigee altitude
614.89 km
Semi-major axis
7,043.456 km
Eccentricity
0.00716
Inclination
88.9463°
RAAN
265.1288°
Arg. of periapsis
234.1526°
True anomaly
125.96882°
Mean anomaly
125.3027°
Eccentric anomaly
125.6361°
Mean motion
3.67168 °/min
Orbital period
98.05 mins
BSTAR
0.0012358
Loading maneuver chart data...
Computing Atmospheric mass density...
Loading historical data...
Loading historical data...
Loading historical data...
Loading historical data...
Loading historical data...
Loading historical data...
Loading historical data...

Documentation

Showing up to 5 results
|